RH
68 90 82 86 88 88 90 92 95 90 96 97 98 95 94 94 92 93 96 95 97 98 98 95 91 87 87 90 97 98 98 87 63 39 50 80 94 85 71 73 74 80 88
67 86 82 86 89 91 93 91 84 91 92 96 95 93 93 90 89 92 94 90 94 94 93 91 89 88 88 92 96 97 81 67 51 69 70 84 93 93 77 87 89 96 93
68 80 91 85 89 92 88 76 87 92 91 96 96 93 91 87 88 88 85 86 89 90 87 86 88 88 89 94 90 84 63 61 78 75 69 86 98 92 97 96 93 96 96
65 76 85 87 89 89 74 82 87 92 92 95 93 93 90 86 86 87 88 88 88 87 87 82 80 88 97 97 82 51 72 81 81 70 62 85 91 95 96 96 97 94 94
64 68 84 85 84 79 83 85 85 87 86 85 85 87 92 87 85 85 87 90 92 91 92 94 95 89 79 68 55 78 79 71 69 75 79 85 84 91 95 92 91 96 97
64 62 84 85 85 84 86 86 86 86 86 85 82 88 91 87 86 88 91 90 82 84 87 93 94 95 91 76 80 80 73 66 58 60 65 76 86 86 90 90 91 91 91
56 74 86 83 83 84 85 86 87 87 86 85 81 92 97 93 88 93 92 82 85 86 87 90 91 89 90 88 79 80 77 66 58 58 66 77 87 87 88 89 89 89 89
76 77 82 86 85 83 81 84 86 85 82 79 79 82 97 90 82 82 85 86 88 92 91 92 92 89 90 84 83 80 71 64 58 63 71 83 89 87 88 90 89 88 88
87 81 81 87 89 83 82 88 87 82 83 78 75 80 96 83 54 54 82 88 96 89 89 93 90 89 84 82 78 66 64 60 59 58 61 77 89 86 86 88 87 89 88
86 84 73 79 86 92 97 89 81 80 81 72 75 80 94 87 70 49 77 88 88 87 87 81 75 79 77 69 62 61 64 60 61 62 71 86 90 88 88 89 89 88 89
83 81 69 75 76 83 87 92 83 83 76 74 74 75 82 97 90 70 72 82 87 85 79 79 71 69 71 70 66 68 66 60 60 63 78 84 91 87 84 86 89 89 89
74 74 70 68 76 83 84 91 90 91 82 74 77 78 66 85 87 86 80 69 79 81 80 74 71 70 76 80 73 69 63 61 62 64 74 81 90 85 73 70 88 91 91
68 71 76 70 79 84 88 80 87 84 68 63 66 63 54 82 86 85 93 87 88 71 85 78 72 76 64 62 68 61 59 61 62 64 64 71 90 84 74 75 86 91 91
61 69 73 76 78 86 83 80 86 71 59 59 62 59 54 68 83 85 80 74 74 74 67 72 66 62 66 61 59 58 58 60 62 64 70 62 77 82 77 72 77 84 88
65 69 69 78 81 87 83 78 81 74 61 60 63 61 59 56 64 69 68 66 66 66 64 63 58 59 60 56 56 57 60 60 64 65 67 69 64 76 80 82 82 86 88
74 71 68 74 86 86 80 79 79 77 64 63 65 64 60 62 58 60 64 75 68 66 64 65 63 60 54 51 52 55 57 59 60 62 62 69 66 65 77 92 93 94 94
67 72 75 70 82 85 83 79 82 76 70 66 67 66 63 65 67 66 62 68 68 67 65 66 65 63 59 55 48 48 52 53 59 62 64 64 71 68 67 84 93 95 94
60 69 75 80 88 85 79 81 83 79 75 70 68 69 70 65 66 68 64 66 66 67 68 68 68 66 62 60 58 50 50 56 59 59 61 64 68 70 73 67 76 92 95
56 65 68 84 90 94 96 85 88 85 81 76 70 69 70 65 64 66 63 63 64 68 68 67 65 63 61 63 60 57 54 55 61 61 61 62 66 70 71 73 74 67 82
51 54 61 77 85 88 89 87 90 86 87 82 74 71 70 67 68 70 65 63 65 68 71 74 69 70 64 62 60 58 62 63 62 65 66 65 65 70 77 74 76 73 67
60 58 57 69 82 83 93 100 99 98 91 92 91 80 74 74 72 76 76 69 68 70 73 74 73 69 73 71 68 65 66 65 66 67 66 65 62 67 72 74 76 76 73
46 65 55 66 79 82 97 100 99 98 100 90 94 92 87 83 79 79 79 78 72 74 74 74 74 75 70 72 69 63 66 59 62 62 61 62 63 64 68 70 71 72 72
42 59 60 68 76 83 82 100 100 100 100 100 100 100 96 92 89 85 82 81 81 80 79 79 78 79 74 71 74 65 70 71 59 60 62 63 64 65 66 65 68 70 72
40 45 71 68 73 68 77 95 93 86 87 82 81 80 80 80 87 91 92 90 87 87 87 83 83 81 81 73 75 78 70 69 69 67 60 60 59 60 62 66 68 69 63
40 40 56 76 74 69 67 73 73 75 78 78 74 71 69 70 72 76 81 75 92 94 90 86 86 85 79 80 74 78 80 79 78 74 76 70 68 68 64 65 67 71 70
46 46 40 69 81 84 80 65 59 62 67 74 74 83 79 76 70 73 73 82 84 92 98 75 65 83 93 87 85 80 80 82 80 79 78 75 78 83 80 80 79 81 80
Wind_Speed
24 26 27 25 24 24 24 23 20 19 17 16 15 14 14 14 15 15 16 18 20 19 20 18 18 18 18 17 17 19 20 19 18 19 20 21 18 17 17 18 14 14 15
28 28 30 27 26 25 24 22 20 19 17 16 16 15 15 15 15 15 15 16 17 18 18 18 18 17 16 18 18 19 19 17 20 21 21 20 19 19 20 19 17 16 16
29 29 29 29 26 25 24 22 21 19 17 17 16 15 15 16 15 16 16 15 17 17 18 18 18 18 18 17 17 18 17 21 21 18 18 17 19 23 21 21 24 21 18
28 29 27 29 27 25 23 22 20 19 17 16 16 16 16 16 16 16 16 17 18 18 18 18 19 18 17 17 17 19 21 20 16 19 14 18 18 21 19 18 18 18 17
27 27 27 29 27 25 22 22 20 19 17 16 16 15 16 16 16 16 17 17 18 18 17 17 17 18 17 17 18 23 22 21 19 16 19 17 16 16 15 15 15 15 16
25 26 28 28 26 25 23 22 19 18 18 18 17 16 16 15 16 16 17 18 20 19 16 17 17 16 16 17 19 22 21 17 16 14 15 14 15 15 16 16 15 16 16
25 27 26 27 26 24 23 22 20 19 18 18 17 16 15 15 16 16 18 21 19 18 16 16 17 16 17 16 20 18 16 16 14 14 14 14 15 15 15 15 15 16 16
27 26 26 26 25 24 23 21 20 18 17 16 15 14 15 14 16 17 19 20 17 17 15 15 15 17 17 19 18 16 15 13 13 13 14 13 14 14 14 14 15 15 15
22 25 26 24 23 21 22 21 19 18 19 16 13 12 15 13 14 16 18 17 15 15 16 15 17 17 16 16 14 13 14 15 12 12 12 11 12 12 13 13 13 14 14
19 25 25 24 22 20 20 20 18 19 19 14 13 11 13 12 13 15 17 16 14 14 15 14 14 14 14 13 12 14 15 13 11 11 11 11 11 11 11 11 12 12 13
23 24 24 25 22 21 20 19 20 20 17 14 12 13 13 12 12 12 13 15 14 13 13 12 12 11 11 10 10 11 9 7 8 9 9 10 9 9 10 10 10 10 11
24 23 24 23 22 22 20 20 19 18 15 13 11 14 14 14 13 12 12 13 12 11 10 10 10 11 10 6 7 7 5 6 7 8 8 9 8 7 8 8 8 8 9
23 19 22 22 23 22 22 20 19 17 15 14 14 14 14 16 16 13 11 10 10 10 8 8 9 6 5 6 5 4 4 4 5 6 5 7 6 5 6 7 6 6 7
22 21 20 21 22 20 20 18 18 16 15 14 14 15 15 16 15 13 12 12 10 10 9 8 7 6 6 5 5 4 3 3 4 4 2 3 5 3 3 4 4 5 5
19 21 19 17 20 20 19 18 15 14 13 13 13 15 15 15 16 16 14 12 11 10 10 9 7 7 7 6 6 6 5 4 4 3 3 2 3 3 2 1 1 3 3
19 20 22 20 20 21 18 18 17 15 14 12 12 14 15 14 14 15 14 13 12 11 10 9 8 8 7 7 8 7 6 6 5 4 3 4 5 6 5 5 4 4 4
18 20 19 20 21 21 19 17 15 15 14 13 11 13 15 13 13 13 13 13 13 12 10 9 8 8 7 7 8 8 7 7 6 6 5 5 5 7 8 8 8 7 6
15 16 18 21 19 20 19 19 17 16 16 14 12 12 14 14 13 13 12 12 12 11 11 10 9 9 9 9 8 8 8 8 8 7 7 7 7 7 8 11 10 10 10
14 14 17 20 21 21 19 19 18 16 15 14 13 12 13 14 14 13 12 12 12 11 11 10 9 9 9 9 9 8 8 9 9 9 9 9 9 10 9 10 11 13 14
10 15 17 18 22 23 20 21 17 19 17 14 14 14 12 13 14 14 12 12 12 11 11 10 10 9 9 8 8 8 9 10 10 11 11 10 10 11 11 11 11 13 17
10 13 17 19 21 23 22 20 19 21 21 17 14 14 13 13 14 14 12 13 14 13 12 11 10 11 9 8 7 9 11 13 14 13 12 11 11 12 12 12 13 12 12
9 9 14 18 18 20 22 21 16 17 18 23 19 15 15 15 14 14 14 13 14 14 13 13 13 11 12 11 7 6 2 9 12 13 12 12 12 12 11 11 11 11 10
6 6 11 13 19 18 18 17 14 12 11 16 17 20 17 16 16 17 16 15 14 14 14 15 15 16 12 14 16 7 2 3 5 10 11 10 9 10 10 8 9 9 10
6 5 4 10 17 18 16 16 14 8 9 6 6 8 12 14 15 17 18 17 14 17 16 14 16 18 18 13 12 15 17 7 2 2 9 9 9 9 8 7 9 11 12
7 6 2 7 15 17 16 22 15 12 9 6 10 10 13 14 12 15 16 20 21 19 17 17 16 18 17 18 15 10 15 15 14 8 5 6 9 9 11 10 9 7 7
8 4 3 7 14 13 24 21 22 16 8 8 10 15 14 19 13 11 17 17 16 16 20 19 19 17 21 21 22 21 16 7 13 11 8 10 8 5 9 10 9 11 12
Wind_Direction
148 155 159 153 151 150 150 147 142 130 129 123 118 114 108 103 105 111 106 97 97 97 97 99 99 100 99 93 95 93 96 92 81 79 81 81 77 77 81 75 73 68 64
151 155 158 156 154 152 151 148 140 132 132 126 120 114 111 109 111 112 110 105 96 99 99 100 101 103 101 103 97 96 94 87 84 78 68 68 73 71 87 73 71 72 67
150 156 156 158 158 155 153 149 140 136 135 128 122 119 113 111 111 112 114 114 108 104 102 102 101 100 102 106 108 106 96 91 86 79 84 78 79 76 79 68 67 75 66
151 154 158 160 158 158 154 148 144 141 136 130 126 120 114 111 112 113 113 113 113 109 104 103 101 102 106 106 105 101 95 85 86 85 80 77 73 69 67 65 65 64 61
151 157 159 164 162 157 154 151 150 144 138 133 126 123 118 113 115 115 115 116 116 110 106 105 105 104 104 105 107 103 91 86 84 80 72 68 65 59 61 67 62 62 61
153 158 161 163 161 158 156 156 152 149 143 137 130 132 119 115 118 119 121 125 114 106 108 107 107 106 106 108 112 104 94 86 83 80 74 63 60 59 63 66 67 66 64
157 149 160 166 165 162 161 160 157 151 146 140 135 137 126 120 120 122 124 118 113 112 113 113 112 112 112 116 116 107 91 73 84 80 73 69 67 67 67 67 68 67 66
143 151 162 168 168 169 164 162 159 152 146 140 138 137 138 125 121 125 125 121 119 115 116 117 113 114 114 114 117 107 96 85 83 82 78 73 71 70 70 69 70 70 69
135 153 161 167 170 169 168 164 159 153 146 141 144 144 153 132 118 126 130 127 124 123 120 116 117 121 121 116 113 103 102 88 88 84 82 76 75 74 73 72 73 74 75
154 154 165 169 170 167 167 166 159 153 146 146 151 150 153 138 128 129 137 135 137 133 125 122 120 125 126 121 114 108 94 86 86 86 84 86 84 80 77 77 78 79 80
162 162 168 168 173 171 166 166 160 158 155 159 165 170 155 145 136 128 151 145 147 144 135 134 129 131 137 131 121 111 91 97 94 92 92 92 88 84 84 84 83 85 85
162 169 169 169 173 168 165 165 162 162 158 161 159 161 164 159 152 152 155 154 156 153 152 149 140 128 123 137 138 108 105 111 99 100 105 102 96 90 82 83 89 91 91
166 166 170 174 168 167 161 168 165 167 171 170 166 164 167 163 166 164 151 151 154 157 159 163 160 160 167 161 175 164 143 127 122 117 116 112 110 96 81 81 95 97 96
170 173 174 173 169 163 163 169 168 179 177 175 176 173 172 171 168 172 167 170 165 176 179 180 185 188 188 190 191 183 174 153 148 139 186 130 131 119 96 88 96 108 111
181 171 183 182 173 169 165 172 173 189 182 182 183 183 179 179 179 176 179 178 179 183 186 190 193 195 200 206 210 208 204 194 178 174 211 268 201 179 182 169 131 122 129
187 189 188 178 179 174 174 174 174 186 190 186 189 193 189 186 184 185 184 182 186 188 191 196 196 198 207 214 218 219 217 215 210 209 205 265 249 224 208 204 205 191 183
189 195 195 184 185 186 181 182 180 182 193 189 193 194 194 191 190 189 190 189 193 194 196 199 202 207 213 219 225 226 225 224 221 223 226 227 259 248 230 215 216 215 211
183 194 199 195 190 195 188 187 190 189 191 192 195 196 197 197 194 191 192 194 194 196 199 204 208 213 219 221 228 228 229 229 230 234 235 230 226 238 252 238 222 220 224
193 195 197 195 190 195 196 189 200 194 193 197 196 198 199 199 199 199 198 198 198 198 202 207 213 221 223 229 235 234 230 230 233 234 235 238 235 226 229 251 248 234 227
188 205 198 200 202 198 194 201 209 206 201 207 204 199 197 201 201 204 208 206 200 204 206 207 212 217 225 226 229 234 235 235 232 234 238 241 236 234 229 230 252 251 240
149 208 199 199 203 202 202 196 207 217 212 216 213 202 201 203 207 208 211 211 208 208 211 212 214 220 223 222 234 242 242 238 236 238 240 239 235 230 231 233 232 240 255
112 195 216 195 197 196 193 189 186 206 216 226 224 213 210 207 208 212 218 215 213 211 215 215 215 217 226 214 215 238 263 216 224 231 233 233 230 228 230 232 235 240 240
105 157 227 200 190 188 204 185 186 200 208 208 224 230 225 214 211 213 222 224 219 221 223 218 218 215 218 220 219 224 184 238 154 192 210 221 226 220 224 229 230 230 230
133 101 187 208 197 198 185 182 165 171 207 208 222 237 227 235 228 220 220 223 225 225 226 227 223 225 227 230 219 238 251 282 268 226 191 215 219 218 224 230 234 239 252
131 121 189 204 199 190 190 200 178 198 212 255 272 275 271 269 240 246 259 246 229 227 228 226 227 228 234 228 226 224 231 241 242 248 266 186 229 235 232 239 247 253 260
138 147 182 175 193 203 207 189 183 185 196 248 272 276 282 283 264 243 256 250 249 250 246 257 246 254 246 239 230 233 226 202 219 220 237 248 251 209 240 258 254 258 259